| time (UTC) | temp C | wind direction | speed KPH | gust KPH | rain 1hr cm | rain 24hr cm | rain mn cm | humidity % | barometer mb |
| 20260503032213 | 27 | 197 | 4.8 | 6.4 | 0.00 | 0.00 | 0.00 | 74 | 1012.0 |
| 20260503032113 | 27 | 197 | 4.8 | 6.4 | 0.00 | 0.00 | 0.00 | 74 | 1012.0 |
| 20260503030213 | 27 | 197 | 4.8 | 6.4 | 0.28 | 0.00 | 0.00 | 74 | 1012.0 |
| 20260503030113 | 27 | 197 | 4.8 | 6.4 | 0.28 | 0.00 | 0.00 | 74 | 1012.0 |
| 20260503024212 | 27 | 197 | 4.8 | 6.4 | 0.28 | 0.00 | 0.00 | 74 | 1012.0 |
| 20260503024112 | 27 | 197 | 4.8 | 6.4 | 0.28 | 0.00 | 0.00 | 74 | 1012.0 |
| 20260503022212 | 27 | 197 | 4.8 | 6.4 | 0.33 | 0.00 | 0.00 | 74 | 1012.0 |
| 20260503022112 | 27 | 197 | 4.8 | 6.4 | 0.33 | 0.00 | 0.00 | 74 | 1012.0 |
| 20260503020211 | 27 | 197 | 4.8 | 6.4 | 0.28 | 0.00 | 0.00 | 74 | 1012.0 |
| 20260503020111 | 27 | 197 | 4.8 | 6.4 | 0.28 | 0.00 | 0.00 | 74 | 1012.0 |
| 20260503014211 | 27 | 197 | 4.8 | 6.4 | 0.28 | 0.00 | 0.00 | 74 | 1012.0 |
| 20260503014111 | 27 | 197 | 4.8 | 6.4 | 0.28 | 0.00 | 0.00 | 74 | 1012.0 |
| 20260503012210 | 27 | 197 | 4.8 | 6.4 | 0.58 | 0.00 | 0.00 | 74 | 1011.0 |
| 20260503012110 | 27 | 197 | 4.8 | 6.4 | 0.58 | 0.00 | 0.00 | 74 | 1011.0 |
| 20260503010210 | 27 | 197 | 4.8 | 6.4 | 1.07 | 0.00 | 0.00 | 74 | 1011.0 |
| 20260503010109 | 27 | 197 | 4.8 | 6.4 | 1.07 | 0.00 | 0.00 | 74 | 1011.0 |
| 20260503004209 | 27 | 197 | 4.8 | 6.4 | 0.33 | 0.00 | 0.00 | 74 | 1011.0 |
| 20260503004109 | 27 | 197 | 4.8 | 6.4 | 0.33 | 0.00 | 0.00 | 74 | 1011.0 |
| 20260503002209 | 27 | 197 | 4.8 | 6.4 | 0.38 | 0.00 | 0.00 | 74 | 1010.0 |
| 20260503002108 | 27 | 197 | 4.8 | 6.4 | 0.38 | 0.00 | 0.00 | 74 | 1010.0 |
| 20260503000208 | 27 | 197 | 4.8 | 6.4 | 0.38 | 0.00 | 0.00 | 74 | 1010.0 |
| 20260503000107 | 27 | 197 | 4.8 | 6.4 | 0.38 | 0.00 | 0.00 | 74 | 1010.0 |
| 20260502234207 | 27 | 197 | 4.8 | 6.4 | 0.18 | 0.00 | 0.00 | 74 | 1010.0 |
| 20260502234107 | 27 | 197 | 4.8 | 6.4 | 0.18 | 0.00 | 0.00 | 74 | 1010.0 |
| 20260502232207 | 27 | 197 | 4.8 | 6.4 | 0.30 | 0.00 | 0.00 | 74 | 1010.0 |
| 20260502232106 | 27 | 197 | 4.8 | 6.4 | 0.30 | 0.00 | 0.00 | 74 | 1010.0 |
| 20260502230206 | 27 | 197 | 4.8 | 6.4 | 0.30 | 0.00 | 0.00 | 74 | 1010.0 |
| 20260502230106 | 27 | 197 | 4.8 | 6.4 | 0.30 | 0.00 | 0.00 | 74 | 1010.0 |
| 20260502224205 | 27 | 197 | 4.8 | 6.4 | 0.13 | 0.00 | 0.00 | 74 | 1010.0 |
| 20260502224105 | 27 | 197 | 4.8 | 6.4 | 0.13 | 0.00 | 0.00 | 74 | 1010.0 |
| 20260502222205 | 27 | 197 | 4.8 | 6.4 | 0.30 | 0.00 | 0.00 | 74 | 1009.0 |
| 20260502222105 | 27 | 197 | 4.8 | 6.4 | 0.30 | 0.00 | 0.00 | 74 | 1009.0 |
| 20260502220205 | 27 | 197 | 4.8 | 6.4 | 0.08 | 0.00 | 0.00 | 74 | 1009.0 |
| 20260502220104 | 27 | 197 | 4.8 | 6.4 | 0.08 | 0.00 | 0.00 | 74 | 1009.0 |
| 20260502214204 | 27 | 197 | 4.8 | 6.4 | 0.05 | 0.00 | 0.00 | 74 | 1009.0 |
| 20260502214104 | 27 | 197 | 4.8 | 6.4 | 0.05 | 0.00 | 0.00 | 74 | 1009.0 |
| 20260502212203 | 27 | 197 | 4.8 | 6.4 | 0.00 | 0.00 | 0.00 | 74 | 1008.0 |
| 20260502212103 | 27 | 197 | 4.8 | 6.4 | 0.00 | 0.00 | 0.00 | 74 | 1008.0 |
| 20260502210203 | 27 | 197 | 4.8 | 6.4 | 0.03 | 0.00 | 0.00 | 74 | 1008.0 |
| 20260502204202 | 30 | 20 | 16.1 | 16.1 | 0.00 | 0.00 | 0.00 | 56 | 1008.0 |
| 20260502204102 | 30 | 20 | 16.1 | 16.1 | 0.00 | 0.00 | 0.00 | 56 | 1008.0 |
| 20260502202201 | 30 | 20 | 16.1 | 16.1 | 0.03 | 0.00 | 0.00 | 56 | 1008.0 |
| 20260502202101 | 30 | 20 | 16.1 | 16.1 | 0.03 | 0.00 | 0.00 | 56 | 1008.0 |
| 20260502200201 | 30 | 20 | 16.1 | 16.1 | 0.10 | 0.00 | 0.00 | 56 | 1008.0 |
| 20260502200101 | 30 | 20 | 16.1 | 16.1 | 0.10 | 0.00 | 0.00 | 56 | 1008.0 |
| 20260502194200 | 30 | 20 | 16.1 | 16.1 | 0.13 | 0.00 | 0.00 | 56 | 1008.0 |
| 20260502194100 | 30 | 20 | 16.1 | 16.1 | 0.13 | 0.00 | 0.00 | 56 | 1008.0 |
| 20260502192200 | 30 | 20 | 16.1 | 16.1 | 0.03 | 0.00 | 0.00 | 56 | 1008.0 |
| 20260502192100 | 30 | 20 | 16.1 | 16.1 | 0.03 | 0.00 | 0.00 | 56 | 1008.0 |
| 20260502190159 | 30 | 20 | 16.1 | 16.1 | 0.00 | 0.00 | 0.00 | 56 | 1008.0 |
| 20260502190059 | 30 | 20 | 16.1 | 16.1 | 0.00 | 0.00 | 0.00 | 56 | 1008.0 |
| 20260502184159 | 30 | 20 | 16.1 | 16.1 | 0.00 | 0.00 | 0.00 | 56 | 1008.0 |
| 20260502184059 | 30 | 20 | 16.1 | 16.1 | 0.00 | 0.00 | 0.00 | 56 | 1008.0 |
| 20260502182158 | 30 | 20 | 16.1 | 16.1 | 0.00 | 0.00 | 0.00 | 56 | 1009.0 |
| 20260502182058 | 30 | 20 | 16.1 | 16.1 | 0.00 | 0.00 | 0.00 | 56 | 1009.0 |
| 20260502180158 | 30 | 20 | 16.1 | 16.1 | 0.00 | 0.00 | 0.00 | 56 | 1009.0 |
| 20260502170156 | 30 | 5 | 19.3 | 19.3 | 0.00 | 0.00 | 0.00 | 56 | 1010.0 |
| 20260502164156 | 30 | 5 | 19.3 | 19.3 | 0.00 | 0.00 | 0.00 | 58 | 1010.0 |
| 20260502164056 | 30 | 5 | 19.3 | 19.3 | 0.00 | 0.00 | 0.00 | 58 | 1010.0 |
| 20260502162156 | 30 | 358 | 17.7 | 19.3 | 0.00 | 0.00 | 0.00 | 61 | 1010.0 |
| 20260502162055 | 30 | 358 | 17.7 | 19.3 | 0.00 | 0.00 | 0.00 | 61 | 1010.0 |
| 20260502160155 | 30 | 358 | 17.7 | 19.3 | 0.00 | 0.00 | 0.00 | 60 | 1010.0 |
| 20260502152154 | 27 | 346 | 16.1 | 20.9 | 0.00 | 0.00 | 0.00 | 73 | 1010.0 |
| 20260502152054 | 27 | 346 | 16.1 | 20.9 | 0.00 | 0.00 | 0.00 | 73 | 1010.0 |
| 20260502150153 | 28 | 346 | 16.1 | 20.9 | 0.00 | 0.00 | 0.00 | 67 | 1010.0 |
| 20260502130151 | 27 | 323 | 6.4 | 12.9 | 0.00 | 0.00 | 0.00 | 74 | 1010.0 |
| 20260502122150 | 27 | 323 | 6.4 | 12.9 | 0.00 | 0.00 | 0.00 | 74 | 1010.0 |
| 20260502122049 | 27 | 323 | 6.4 | 12.9 | 0.00 | 0.00 | 0.00 | 74 | 1010.0 |
| 20260502120149 | 27 | 323 | 6.4 | 12.9 | 0.00 | 0.00 | 0.00 | 74 | 1010.0 |
| 20260502114149 | 27 | 323 | 6.4 | 12.9 | 0.00 | 0.00 | 0.00 | 74 | 1009.0 |
| 20260502114049 | 27 | 323 | 6.4 | 12.9 | 0.00 | 0.00 | 0.00 | 74 | 1009.0 |
| 20260502112148 | 27 | 323 | 6.4 | 12.9 | 0.00 | 0.00 | 0.00 | 74 | 1009.0 |
| 20260502112048 | 27 | 323 | 6.4 | 12.9 | 0.00 | 0.00 | 0.00 | 74 | 1009.0 |
| 20260502110148 | 27 | 323 | 6.4 | 12.9 | 0.00 | 0.00 | 0.00 | 74 | 1009.0 |
| 20260502110048 | 27 | 323 | 6.4 | 12.9 | 0.00 | 0.00 | 0.00 | 74 | 1009.0 |
| 20260502104148 | 27 | 323 | 6.4 | 12.9 | 0.00 | 0.00 | 0.00 | 74 | 1009.0 |
| 20260502104047 | 27 | 323 | 6.4 | 12.9 | 0.00 | 0.00 | 0.00 | 74 | 1009.0 |
| 20260502102147 | 27 | 323 | 6.4 | 12.9 | 0.00 | 0.00 | 0.00 | 74 | 1008.0 |
| 20260502102046 | 27 | 323 | 6.4 | 12.9 | 0.00 | 0.00 | 0.00 | 74 | 1008.0 |
| 20260502100146 | 27 | 323 | 6.4 | 12.9 | 0.00 | 0.00 | 0.00 | 74 | 1008.0 |
| 20260502090145 | 27 | 323 | 6.4 | 12.9 | 0.00 | 0.00 | 0.00 | 74 | 1008.0 |
| 20260502070142 | 27 | 323 | 6.4 | 12.9 | 0.00 | 0.00 | 0.00 | 74 | 1009.0 |
| 20260502070042 | 27 | 323 | 6.4 | 12.9 | 0.00 | 0.00 | 0.00 | 74 | 1009.0 |
| 20260502064142 | 27 | 323 | 6.4 | 12.9 | 0.00 | 0.00 | 0.00 | 74 | 1009.0 |
| 20260502064042 | 27 | 323 | 6.4 | 12.9 | 0.00 | 0.00 | 0.00 | 74 | 1009.0 |
| 20260502062142 | 27 | 323 | 6.4 | 12.9 | 0.00 | 0.00 | 0.00 | 74 | 1009.0 |
| 20260502062041 | 27 | 323 | 6.4 | 12.9 | 0.00 | 0.00 | 0.00 | 74 | 1009.0 |
| 20260502060141 | 27 | 323 | 6.4 | 12.9 | 0.00 | 0.00 | 0.00 | 74 | 1009.0 |
| 20260502060040 | 27 | 323 | 6.4 | 12.9 | 0.00 | 0.00 | 0.00 | 74 | 1009.0 |
| 20260502054141 | 27 | 323 | 6.4 | 12.9 | 0.00 | 0.00 | 0.00 | 74 | 1009.0 |
| 20260502054040 | 27 | 323 | 6.4 | 12.9 | 0.00 | 0.00 | 0.00 | 74 | 1009.0 |
| 20260502052140 | 27 | 323 | 6.4 | 12.9 | 0.00 | 0.00 | 0.00 | 74 | 1010.0 |
| 20260502052040 | 27 | 323 | 6.4 | 12.9 | 0.00 | 0.00 | 0.00 | 74 | 1010.0 |
| 20260502050139 | 27 | 323 | 6.4 | 12.9 | 0.00 | 0.00 | 0.00 | 74 | 1010.0 |
| 20260502050039 | 27 | 323 | 6.4 | 12.9 | 0.00 | 0.00 | 0.00 | 74 | 1010.0 |
| 20260502044139 | 27 | 323 | 6.4 | 12.9 | 0.00 | 0.00 | 0.00 | 74 | 1010.0 |
| 20260502044039 | 27 | 323 | 6.4 | 12.9 | 0.00 | 0.00 | 0.00 | 74 | 1010.0 |
| 20260502042138 | 27 | 323 | 6.4 | 12.9 | 0.00 | 0.00 | 0.00 | 74 | 1010.0 |
| 20260502042038 | 27 | 323 | 6.4 | 12.9 | 0.00 | 0.00 | 0.00 | 74 | 1010.0 |
| 20260502040138 | 27 | 323 | 6.4 | 12.9 | 0.00 | 0.00 | 0.00 | 74 | 1010.0 |
| 20260502040038 | 27 | 323 | 6.4 | 12.9 | 0.00 | 0.00 | 0.00 | 74 | 1010.0 |
| 20260502034137 | 27 | 323 | 6.4 | 12.9 | 0.00 | 0.00 | 0.00 | 74 | 1010.0 |
| 20260502034037 | 27 | 323 | 6.4 | 12.9 | 0.00 | 0.00 | 0.00 | 74 | 1010.0 |